When you browse on this site, cookies collect data to enhance your experience and personalize the content and advertising you see.
Visit our Privacy Policy to learn more. By continuing to use the site, you agree to this use of cookies and data.
  • In Österreich
  • Länderverzeichnis
  • Für 7 Tage
  • Wassertemperatur
  • Satellitenkarten
  • Wetterkarte
  • News
  • Widgets
  • user-avatar
    Anmelden

    Stündliche Wetter Biarritz

    Heute, 19 November, Montag

    Zeit Temperatur Niederschläge Wind Luftdruck Luftfeuchtigkeit
    00:00 +10°C° 0 mm 3 m/S 755 mmHg 88%
    01:00 +9°C° 0 mm 3 m/S 755 mmHg 88%
    02:00 +9°C° 0 mm 3 m/S 755 mmHg 88%
    03:00 +9°C° 0 mm 3 m/S 754 mmHg 88%
    04:00 +8°C° 0 mm 3 m/S 754 mmHg 88%
    05:00 +8°C° 0 mm 3 m/S 754 mmHg 88%
    06:00 +8°C° 0 mm 2 m/S 754 mmHg 89%
    07:00 +9°C° 0 mm 2 m/S 754 mmHg 86%
    08:00 +10°C° 0 mm 2 m/S 753 mmHg 84%
    09:00 +12°C° 0 mm 2 m/S 753 mmHg 81%
    10:00 +13°C° 0 mm 2 m/S 753 mmHg 77%
    11:00 +14°C° 0 mm 2 m/S 752 mmHg 73%
    12:00 +15°C° 0 mm 2 m/S 752 mmHg 69%
    13:00 +15°C° 0 mm 2 m/S 751 mmHg 70%
    14:00 +15°C° 0 mm 2 m/S 751 mmHg 71%
    15:00 +15°C° 0 mm 2 m/S 750 mmHg 72%
    16:00 +13°C° 0 mm 2 m/S 750 mmHg 78%
    17:00 +12°C° 0 mm 2 m/S 750 mmHg 84%
    18:00 +9°C° 0 mm 2 m/S 750 mmHg 90%
    19:00 +9°C° 0 mm 2 m/S 751 mmHg 90%
    20:00 +8°C° 0 mm 2 m/S 751 mmHg 89%
    21:00 +8°C° 0 mm 2 m/S 751 mmHg 89%
    22:00 +8°C° 0 mm 2 m/S 751 mmHg 88%
    23:00 +7°C° 0 mm 2 m/S 751 mmHg 88%

    Morgen, 20 November, Dienstag

    Zeit Temperatur Niederschläge Wind Luftdruck Luftfeuchtigkeit
    00:00 +7°C° 0 mm 2 m/S 751 mmHg 87%
    01:00 +7°C° 0 mm 2 m/S 751 mmHg 87%
    02:00 +7°C° 0 mm 2 m/S 750 mmHg 87%
    03:00 +6°C° 0 mm 2 m/S 750 mmHg 87%
    04:00 +6°C° 0 mm 2 m/S 750 mmHg 87%
    05:00 +6°C° 0 mm 2 m/S 750 mmHg 87%
    06:00 +5°C° 0 mm 2 m/S 750 mmHg 87%
    07:00 +6°C° 0.1 mm 2 m/S 750 mmHg 86%
    08:00 +6°C° 0.1 mm 2 m/S 750 mmHg 84%
    09:00 +6°C° 0.1 mm 2 m/S 750 mmHg 83%
    10:00 +7°C° 0.5 mm 2 m/S 750 mmHg 83%
    11:00 +7°C° 0.5 mm 2 m/S 750 mmHg 82%
    12:00 +7°C° 0.5 mm 2 m/S 750 mmHg 82%
    13:00 +7°C° 0.3 mm 2 m/S 750 mmHg 82%
    14:00 +8°C° 0.3 mm 1 m/S 751 mmHg 83%
    15:00 +8°C° 0.3 mm 1 m/S 751 mmHg 83%
    16:00 +8°C° 0.1 mm 1 m/S 751 mmHg 85%
    17:00 +8°C° 0.1 mm 1 m/S 751 mmHg 87%
    18:00 +7°C° 0.1 mm 1 m/S 752 mmHg 89%
    19:00 +7°C° 0 mm 1 m/S 752 mmHg 90%
    20:00 +7°C° 0 mm 1 m/S 752 mmHg 90%
    21:00 +7°C° 0 mm 1 m/S 753 mmHg 91%
    22:00 +7°C° 0.1 mm 1 m/S 753 mmHg 91%
    23:00 +7°C° 0.1 mm 1 m/S 753 mmHg 90%

    übermorgen, 21 November, Mittwoch

    Zeit Temperatur Niederschläge Wind Luftdruck Luftfeuchtigkeit
    00:00 +7°C° 0.1 mm 1 m/S 754 mmHg 90%
    01:00 +7°C° 0.1 mm 1 m/S 754 mmHg 90%
    02:00 +7°C° 0.1 mm 1 m/S 754 mmHg 90%
    03:00 +6°C° 0.1 mm 2 m/S 754 mmHg 90%
    04:00 +6°C° 0 mm 2 m/S 754 mmHg 90%
    05:00 +6°C° 0 mm 2 m/S 755 mmHg 91%
    06:00 +5°C° 0 mm 3 m/S 755 mmHg 91%
    07:00 +7°C° 0.1 mm 3 m/S 755 mmHg 90%
    08:00 +7°C° 0.1 mm 3 m/S 756 mmHg 89%
    09:00 +7°C° 0.1 mm 4 m/S 757 mmHg 88%
    10:00 +9°C° 0 mm 3 m/S 757 mmHg 84%
    11:00 +10°C° 0 mm 3 m/S 757 mmHg 79%
    12:00 +12°C° 0 mm 3 m/S 757 mmHg 74%
    13:00 +12°C° 0 mm 3 m/S 757 mmHg 74%
    14:00 +12°C° 0 mm 3 m/S 757 mmHg 74%
    15:00 +12°C° 0 mm 3 m/S 757 mmHg 74%
    16:00 +11°C° 0 mm 3 m/S 758 mmHg 78%
    17:00 +10°C° 0 mm 3 m/S 758 mmHg 83%
    18:00 +7°C° 0 mm 4 m/S 758 mmHg 88%
    19:00 +7°C° 0 mm 4 m/S 759 mmHg 87%
    20:00 +7°C° 0 mm 4 m/S 759 mmHg 85%
    21:00 +7°C° 0 mm 4 m/S 759 mmHg 84%
    22:00 +7°C° 0 mm 4 m/S 759 mmHg 83%
    23:00 +7°C° 0 mm 4 m/S 759 mmHg 82%

    22 November, Donnerstag

    Zeit Temperatur Niederschläge Wind Luftdruck Luftfeuchtigkeit
    00:00 +7°C° 0 mm 4 m/S 759 mmHg 82%
    01:00 +7°C° 0 mm 4 m/S 759 mmHg 81%
    02:00 +7°C° 0 mm 4 m/S 759 mmHg 81%
    03:00 +7°C° 0 mm 4 m/S 759 mmHg 80%
    04:00 +7°C° 0.1 mm 4 m/S 759 mmHg 82%
    05:00 +8°C° 0.1 mm 5 m/S 760 mmHg 84%
    06:00 +8°C° 0.1 mm 5 m/S 760 mmHg 85%
    07:00 +8°C° 0 mm 5 m/S 760 mmHg 84%
    08:00 +9°C° 0 mm 5 m/S 760 mmHg 82%
    09:00 +9°C° 0 mm 5 m/S 761 mmHg 81%
    10:00 +12°C° 0 mm 5 m/S 761 mmHg 76%
    11:00 +13°C° 0 mm 5 m/S 761 mmHg 72%
    12:00 +14°C° 0 mm 5 m/S 761 mmHg 67%
    13:00 +14°C° 0 mm 4 m/S 760 mmHg 68%
    14:00 +14°C° 0 mm 4 m/S 760 mmHg 68%
    15:00 +14°C° 0 mm 4 m/S 760 mmHg 69%
    16:00 +13°C° 0 mm 4 m/S 761 mmHg 73%
    17:00 +11°C° 0 mm 4 m/S 761 mmHg 78%
    18:00 +8°C° 0 mm 4 m/S 761 mmHg 82%
    19:00 +8°C° 0 mm 4 m/S 762 mmHg 82%
    20:00 +8°C° 0 mm 4 m/S 762 mmHg 82%
    21:00 +8°C° 0 mm 4 m/S 762 mmHg 81%
    22:00 +8°C° 0 mm 4 m/S 762 mmHg 81%
    23:00 +8°C° 0 mm 4 m/S 762 mmHg 80%

    23 November, Freitag

    Zeit Temperatur Niederschläge Wind Luftdruck Luftfeuchtigkeit
    00:00 +8°C° 0 mm 4 m/S 763 mmHg 80%
    01:00 +8°C° 0 mm 4 m/S 762 mmHg 80%
    02:00 +8°C° 0 mm 4 m/S 762 mmHg 80%
    03:00 +8°C° 0 mm 4 m/S 762 mmHg 79%
    04:00 +8°C° 0 mm 4 m/S 762 mmHg 81%
    05:00 +8°C° 0 mm 4 m/S 762 mmHg 82%
    06:00 +8°C° 0 mm 4 m/S 762 mmHg 83%
    07:00 +10°C° 0 mm 4 m/S 763 mmHg 83%
    08:00 +10°C° 0 mm 4 m/S 763 mmHg 82%
    09:00 +11°C° 0 mm 4 m/S 763 mmHg 81%
    10:00 +12°C° 0 mm 4 m/S 763 mmHg 77%
    11:00 +13°C° 0 mm 4 m/S 762 mmHg 73%
    12:00 +16°C° 0 mm 3 m/S 762 mmHg 69%
    13:00 +16°C° 0 mm 3 m/S 762 mmHg 71%
    14:00 +16°C° 0 mm 3 m/S 761 mmHg 73%
    15:00 +15°C° 0 mm 2 m/S 761 mmHg 74%
    16:00 +14°C° 0 mm 2 m/S 761 mmHg 78%
    17:00 +12°C° 0 mm 3 m/S 761 mmHg 82%
    18:00 +11°C° 0 mm 3 m/S 762 mmHg 85%
    19:00 +11°C° 0 mm 3 m/S 762 mmHg 86%
    20:00 +10°C° 0 mm 3 m/S 762 mmHg 87%
    21:00 +10°C° 0 mm 4 m/S 762 mmHg 88%
    22:00 +10°C° 0 mm 4 m/S 762 mmHg 89%
    23:00 +8°C° 0 mm 4 m/S 762 mmHg 90%

    24 November, Samstag

    Zeit Temperatur Niederschläge Wind Luftdruck Luftfeuchtigkeit
    00:00 +8°C° 0 mm 4 m/S 762 mmHg 90%
    01:00 +8°C° 0 mm 4 m/S 762 mmHg 91%
    02:00 +8°C° 0 mm 4 m/S 762 mmHg 91%
    03:00 +8°C° 0 mm 4 m/S 762 mmHg 91%
    04:00 +8°C° 0 mm 4 m/S 762 mmHg 92%
    05:00 +8°C° 0 mm 4 m/S 762 mmHg 92%
    06:00 +8°C° 0 mm 4 m/S 762 mmHg 93%
    07:00 +9°C° 0 mm 3 m/S 763 mmHg 90%
    08:00 +10°C° 0 mm 3 m/S 763 mmHg 87%
    09:00 +12°C° 0 mm 2 m/S 763 mmHg 84%
    10:00 +13°C° 0 mm 2 m/S 763 mmHg 76%
    11:00 +15°C° 0 mm 2 m/S 763 mmHg 68%
    12:00 +16°C° 0 mm 2 m/S 763 mmHg 60%
    13:00 +16°C° 0 mm 2 m/S 763 mmHg 61%
    14:00 +16°C° 0 mm 1 m/S 763 mmHg 62%
    15:00 +16°C° 0 mm 1 m/S 763 mmHg 63%
    16:00 +14°C° 0 mm 1 m/S 763 mmHg 70%
    17:00 +13°C° 0 mm 1 m/S 764 mmHg 77%
    18:00 +10°C° 0 mm 0 m/S 764 mmHg 84%
    19:00 +11°C° 0 mm 1 m/S 764 mmHg 85%
    20:00 +11°C° 0 mm 1 m/S 764 mmHg 86%
    21:00 +10°C° 0 mm 1 m/S 765 mmHg 88%
    22:00 +10°C° 0 mm 1 m/S 765 mmHg 88%
    23:00 +10°C° 0 mm 1 m/S 765 mmHg 88%
    Mehr zeigen